{"data":{"norad_id":53008,"intl_designator":"2022-076Y","name":"STARLINK-4275","alt_names":[],"object_type":"PAYLOAD","status":"ACTIVE","operator":null,"country":"US","launch_date":"2022-07-07","launch_site_code":"AFETR","launch_vehicle":null,"mission":null,"orbit_class":"UNKNOWN","rcs_meters":null,"size_class":null,"mass_kg":null,"dimensions":null,"purposes":["comms"],"wikipedia_slug":null,"has_3d_model":false,"image_url":null,"decayed_at":null,"tle_current":{"epoch":"2026-09-19T16:57:25.652160Z","epoch_age_seconds":137479,"freshness":"FRESH","line1":"1 53008U 22076Y   26262.70654690  .00001634  00000+0  57745-4 0  9993","line2":"2 53008  53.1595 287.3978 0001109  87.6636 272.4494 15.35396337232359","mean_motion":15.35396337,"eccentricity":0.0001109,"inclination_deg":53.1595,"raan_deg":287.3978,"arg_perigee_deg":87.6636,"mean_anomaly_deg":272.4494,"bstar":5.7745e-5,"rev_number":23235,"period_min":93.786859151534,"perigee_km":458.98519720577,"apogee_km":460.50183910469,"semimajor_km":6837.8805181552,"source":"CELESTRAK","updated_at":"2026-09-20T09:00:40.143193Z"}}}